User: anonymous   Login
Location: Unspecified
(0.0000°N, 0.0000°E)
Time: 21:19:31
(UTC+00:00)
Language:

TIANWANG 1C (TW-1C) - Orbit

View from above orbital plane
View from above orbital plane
View from above satellite
View from above satellite

Ground track
Ground track

The orbit data is extracted from the following two-line orbital elements,

1 40926U 15051B   17141.79482543 +.00007562 +00000-0 +17737-3 0  9997
2 40926 097.2321 181.5645 0009833 265.8705 183.2492 15.42297207092855
Epoch (UTC): 21 May 2017 19:04:32
Eccentricity: 0.0009833
inclination: 97.2321°
perigee height: 432 km
apogee height: 446 km
right ascension of ascending node: 181.5645°
argument of perigee: 265.8705°
revolutions per day: 15.42297207
mean anomaly at epoch: 183.2492°
orbit number at epoch: 9285

The dashed part of the orbit path shows where the satellite is in the earth's shadow,  

DLR